This is the latest recevied weather packets stored in our database for station/object W4DHW-4. If no packets are shown the sender has not sent any weather packets the latest 10 day(s).
| Time | Temp. | Humidity | Pressure | Rain* | Wind** | Luminosity | Snow |
|---|---|---|---|---|---|---|---|
| 1777463410 | 15° C | 93% | 1014.6 hPa | 0 mm | - | 39 W/m² | - |
| 1777463107 | 15° C | 93% | 1014.6 hPa | 0 mm | - | 29 W/m² | - |
| 1777462802 | 15° C | 93% | 1014.9 hPa | 0 mm | - | 15 W/m² | - |
| 1777462497 | 15° C | 93% | 1015 hPa | 0 mm | - | 9 W/m² | - |
| 1777462194 | 15° C | 93% | 1015.2 hPa | 0 mm | - | 7 W/m² | - |
| 1777461891 | 15° C | 93% | 1014.8 hPa | 0 mm | - | 5 W/m² | - |
| 1777461588 | 15° C | 94% | 1014.7 hPa | 0 mm | - | 6 W/m² | - |
| 1777461283 | 15° C | 94% | 1014.4 hPa | 0 mm | - | 7 W/m² | - |
| 1777460979 | 15° C | 94% | 1014.3 hPa | 0 mm | - | 6 W/m² | - |
| 1777460674 | 15° C | 94% | 1014.4 hPa | 0 mm | - | 4 W/m² | - |
| 1777460371 | 14.44° C | 94% | 1013.8 hPa | 0 mm | - | 8 W/m² | - |
| 1777460066 | 15° C | 94% | 1013.2 hPa | 0 mm | - | 5 W/m² | - |
| 1777459764 | 14.44° C | 94% | 1013.3 hPa | 0 mm | - | 3 W/m² | - |
| 1777459461 | 14.44° C | 94% | 1012.9 hPa | 0 mm | - | 1 W/m² | - |
| 1777459159 | 14.44° C | 94% | 1013.1 hPa | 0 mm | - | 0 W/m² | - |
| 1777458856 | 15° C | 94% | 1013.4 hPa | 0 mm | - | 0 W/m² | - |
| 1777458552 | 15° C | 94% | 1013.4 hPa | 0 mm | - | 0 W/m² | - |
| 1777458249 | 15° C | 94% | 1013.5 hPa | 0 mm | - | 0 W/m² | - |
| 1777457944 | 14.44° C | 93% | 1013.6 hPa | 0 mm | - | 0 W/m² | - |
| 1777457641 | 15° C | 93% | 1013.6 hPa | 0 mm | - | 0 W/m² | - |
| 1777457340 | 15° C | 93% | 1013.6 hPa | 0 mm | - | 0 W/m² | - |
| 1777457036 | 15° C | 93% | 1013.6 hPa | 0 mm | - | 0 W/m² | - |
| 1777456732 | 15° C | 93% | 1013.8 hPa | 0 mm | - | 0 W/m² | - |
| 1777456431 | 15° C | 93% | 1013.7 hPa | 0 mm | - | 0 W/m² | - |
| 1777456128 | 15° C | 93% | 1013.6 hPa | 0 mm | - | 0 W/m² | - |
* Rain latest hour (hover to see other rain measurements)
** Current wind speed in m/s (hover to see current wind gust speed)